metlocid,date_time,avg_airt3m,std_airt3m,min_airt3m,max_airt3m,n_airt3m,avg_airtdel3m1,std_airtdel3m1,min_airtdel3m1,max_airtdel3m1,n_airtdel3m1,n_comments
FRIM,12/1/93,-3.189357041,2.440443757,-8.75,5.21,3515,,,,,0,0
FRIM,1/1/94,-0.702285542,1.932494488,-10.25,5.25,1667,,,,,0,0
FRIM,2/1/94,-13.54093745,7.602796516,-31.37,-1.75,224,,,,,0,0
FRIM,3/1/94,-28.07931454,7.233094256,-42.47,-13.31,248,,,,,0,0
FRIM,4/1/94,-25.17395831,7.588019426,-40.14,-8.76,240,,,,,0,0
FRIM,5/1/94,-35.36870971,8.678864614,-51.52,-15.7,248,,,,,0,0
FRIM,6/1/94,-30.62087504,10.08158526,-49.28,-9.24,240,,,,,0,0
FRIM,7/1/94,-33.7425807,11.34051748,-49.86,-3.93,248,,,,,0,0
FRIM,8/1/94,-38.45201611,11.39129438,-50.15,-11.77,248,,,,,0,0
FRIM,9/1/94,-36.67100002,6.788005787,-46.06,-13.88,240,,,,,0,0
FRIM,10/1/94,-19.8749193,6.879700183,-36.65,-4.9,248,,,,,0,0
FRIM,11/1/94,-8.417222202,3.272781004,-20.83,2.02,216,,,,,0,1
FRLM,11/1/94,-9.859364165,1.319888178,-11.62,-6.53,173,,,,,0,6
FRLM,12/1/94,-3.015403224,2.328571857,-9.59,3.07,2232,,,,,0,0
FRLM,1/1/95,-2.974369677,1.835301364,-6.97,4.49,2229,0.264875084,0.319289542,-0.51,2.58,1481,0
FRLM,2/1/95,-7.567757926,4.53753311,-20.29,4.99,2016,0.210922619,0.378532943,-0.45,2.72,2016,0
FRLM,3/1/95,-24.28026883,8.402686623,-39.3,-5.84,2232,0.330080645,0.36185016,-0.27,3.46,2232,0
FRLM,4/1/95,-31.17500456,9.073135882,-49.45,-7.52,2160,0.283157408,0.24401105,-0.42,2.04,2160,0
FRLM,5/1/95,-32.48615591,9.174435186,-48.13,-8.92,2232,0.278503584,0.25618534,-0.23,1.55,2232,0
FRLM,6/1/95,-30.77940742,10.74659344,-49.74,-3.78,2160,0.383074074,0.280794864,-0.18,2.11,2160,0
FRLM,7/1/95,-35.32671146,7.514596851,-47.76,-9.2,2232,0.374059139,0.296745098,-0.32,1.89,2232,0
FRLM,8/1/95,-31.27917114,10.47203118,-48.29,-5.14,2232,0.3865681,0.251536837,-0.15,1.59,2232,0
FRLM,9/1/95,-30.84164352,11.96615571,-51.73,-8.72,2160,0.345199073,0.257751808,-0.14,2.32,2160,0
FRLM,10/1/95,-19.02492834,5.271799326,-33.15,-6.22,2232,0.536160394,0.512068951,-0.47,4.91,2232,0
FRLM,11/1/95,-6.815189086,5.671720566,-24.07,4.12,2380,0.451373477,0.4967114,-0.59,4.09,1478,2
FRLM,12/1/95,-0.804297715,2.13045232,-8.9,8.17,2976,,,,,0,0
FRLM,1/1/96,-2.217149579,2.201164578,-7.2,5.44,2975,,,,,0,0
FRLM,2/1/96,-6.859647992,5.250605614,-18.89,3.57,2784,,,,,0,0
FRLM,3/1/96,-17.73693884,6.496789183,-32.34,3.04,2976,,,,,0,0
FRLM,4/1/96,-21.52804863,8.145789777,-36.08,-2.36,2880,,,,,0,0
FRLM,5/1/96,-31.36569224,8.418955623,-48.29,-9.36,2976,,,,,0,0
FRLM,6/1/96,-31.30235068,8.910239482,-45.67,-6.97,2880,,,,,0,0
FRLM,7/1/96,-32.56891466,10.35763609,-45.89,-6.78,2976,,,,,0,0
FRLM,8/1/96,-26.58398454,10.24614558,-42.96,2.99,2974,,,,,0,0
FRLM,9/1/96,-29.71403124,6.246547612,-41.58,-12.25,2880,,,,,0,0
FRLM,10/1/96,-21.48127016,6.834451934,-36.84,-6.97,2976,,,,,0,0
FRLM,11/1/96,-7.377109102,5.037418103,-23.61,2.91,2878,,,,,0,0
FRLM,12/1/96,-0.986696909,1.783320915,-5.51,5.62,2976,,,,,0,0
FRLM,1/1/97,-2.6625,2.410623589,-7.99,5.3,2976,,,,,0,0
FRLM,2/1/97,-10.03239212,4.323712692,-20.55,-0.54,2688,,,,,0,0
FRLM,3/1/97,-24.20253025,6.313804272,-37.83,-9.86,2976,,,,,0,0
FRLM,4/1/97,-31.89583333,8.093768314,-46.23,-6.33,2880,,,,,0,0
FRLM,5/1/97,-26.45787298,10.52687629,-45.09,-4.9,2976,,,,,0,0
FRLM,6/1/97,-26.25930209,10.11391686,-46.54,-4.87,2880,,,,,0,0
FRLM,7/1/97,-36.11361348,10.34105366,-49.22,-11.78,2975,,,,,0,0
FRLM,8/1/97,-37.41427087,11.30970725,-52.15,-12.12,2976,,,,,0,0
FRLM,9/1/97,-29.38091665,10.9376735,-47.99,1.31,2880,,,,,0,0
FRLM,10/1/97,-13.80240928,5.579245412,-32.4,-3.34,2976,,,,,0,0
FRLM,11/1/97,-3.5752121,5.627804007,-21.53,5.86,2876,,,,,0,0
FRLM,12/1/97,-3.071676746,3.125297596,-10.14,5.18,2976,,,,,0,0
FRLM,1/1/98,-3.236139113,2.67939777,-11.09,4.47,2976,,,,,0,0
FRLM,2/1/98,-8.261815482,4.947521569,-24.42,2.23,2688,,,,,0,0
FRLM,3/1/98,-21.58507393,5.911187865,-39.48,-7.57,2976,,,,,0,0
FRLM,4/1/98,-34.46243752,9.407937365,-48.74,-7.16,2880,,,,,0,0
FRLM,5/1/98,-28.43187836,9.177071676,-45.24,-4.13,2976,,,,,0,0
FRLM,6/1/98,-21.84638194,7.06329299,-35.95,-6.6,2880,,,,,0,0
FRLM,7/1/98,-29.88892811,9.537208072,-47.01,-9.91,2976,,,,,0,0
FRLM,8/1/98,-32.47779571,10.32824829,-46.02,-8.46,2976,,,,,0,0
FRLM,9/1/98,-36.0318993,8.271129044,-47.62,-2.6,2880,,,,,0,0
FRLM,10/1/98,-17.41254034,5.856674444,-35.33,-1.87,2976,,,,,0,0
FRLM,11/1/98,-9.192347226,4.948641546,-24.74,2.12,2880,,,,,0,0
FRLM,12/1/98,-2.316710352,2.856867845,-9.74,4.85,2976,,,,,0,0
FRLM,1/1/99,-1.133733196,2.167398706,-6.85,6.66,2976,,,,,0,0
FRLM,2/1/99,-8.046767118,4.969852758,-22.32,3.31,2688,,,,,0,0
FRLM,3/1/99,-22.43144489,6.900954479,-36.64,-6.05,2976,,,,,0,0
FRLM,4/1/99,-31.83150001,9.188084214,-45.56,-7.67,2880,,,,,0,0
FRLM,5/1/99,-34.93051073,10.1763931,-50.53,-7.38,2976,,,,,0,0
FRLM,6/1/99,-28.6054861,8.58573726,-43.75,-5.16,2880,,,,,0,0
FRLM,7/1/99,-26.52089719,10.2478699,-43.96,-6.91,2976,,,,,0,0
FRLM,8/1/99,-37.89661628,11.05902571,-51.47,-11.19,2976,,,,,0,0
FRLM,9/1/99,-26.26729516,10.14122367,-49.71,-1.38,2880,,,,,0,0
FRLM,10/1/99,-18.84443885,7.607818141,-39.95,-2.62,2976,,,,,0,0
FRLM,11/1/99,-6.523118058,3.982835405,-20.34,3.21,2880,,,,,0,0
FRLM,12/1/99,-2.132137099,1.810802455,-7.18,3.12,2976,,,,,0,0
FRLM,1/1/00,-3.169334677,2.43390907,-11.56,3.41,2976,,,,,0,0
FRLM,2/1/00,-8.801034107,3.377111664,-18.18,-0.85,2756,,,,,0,28
FRLM,3/1/00,-17.81751344,6.874339374,-36.55,-3.5,2976,,,,,0,0
FRLM,4/1/00,-24.08424615,9.636177996,-38.86,-1.89,1625,,,,,0,1255
FRLM,5/1/00,,,,,0,,,,,0,2976
FRLM,6/1/00,,,,,0,,,,,0,2880
FRLM,7/1/00,-37.90736965,6.760429409,-49.64,-25.64,863,,,,,0,2113
FRLM,8/1/00,-30.93353495,11.18549372,-49,-6.94,2976,,,,,0,0
FRLM,9/1/00,-30.38080206,10.49976936,-46.49,-6.11,2880,,,,,0,0
FRLM,10/1/00,-22.10873653,5.625224651,-34.48,-7.18,2976,,,,,0,0
FRLM,11/1/00,-6.085305774,5.402662546,-25.07,3.99,2878,,,,,0,2
FRLM,12/1/00,-3.432846104,1.925104633,-7.96,2.53,2976,,,,,0,0
FRLM,1/1/01,-5.215628363,2.199777778,-10.23,0.04,2976,,,,,0,0
FRLM,2/1/01,-7.232924099,3.311394606,-17.36,3.47,2688,,,,,0,0
FRLM,3/1/01,-21.99961023,5.698520596,-31.84,-0.47,2976,,,,,0,0
FRLM,4/1/01,-28.08048611,8.289403091,-44.62,-6.7,2880,,,,,0,0
FRLM,5/1/01,-27.90110552,11.18901962,-45,-4.21,2976,,,,,0,0
FRLM,6/1/01,-26.56131249,9.090583939,-43.23,-3.93,2880,,,,,0,566
FRLM,7/1/01,-29.72007393,8.560969365,-46.82,-8.04,2976,,,,,0,2976
FRLM,8/1/01,-42.50004029,6.93785875,-52.54,-19.55,2976,,,,,0,2976
FRLM,9/1/01,-33.19974652,10.23759617,-48.24,-6.56,2880,,,,,0,2880
FRLM,10/1/01,-19.15449262,7.420956606,-38.3,-4.03,2976,,,,,0,2976
FRLM,11/1/01,-7.852829856,4.111704984,-20.93,1.95,2880,,,,,0,2550
FRLM,12/1/01,-0.812829299,3.024797155,-9.53,8.14,2976,,,,,0,0
FRLM,1/1/02,-0.944462365,3.157614706,-8.14,9.89,2976,,,,,0,0
FRLM,2/1/02,-7.14238839,3.990950862,-17.76,2.4,2688,,,,,0,0
FRLM,3/1/02,-17.27743617,5.428221562,-29.52,-4.44,2976,,,,,0,0
FRLM,4/1/02,-26.77354167,9.196027503,-38.89,-5.34,2880,,,,,0,0
FRLM,5/1/02,-23.17758737,8.960639427,-40.33,-4.02,2976,,,,,0,0
FRLM,6/1/02,-35.38501041,8.758037219,-47.92,-8.58,2880,,,,,0,0
FRLM,7/1/02,-38.88835681,9.648236599,-48.47,-12.13,2976,,,,,0,0
FRLM,8/1/02,-39.83197579,9.763078268,-51.59,-10.08,2976,,,,,0,0
FRLM,9/1/02,-29.56910067,9.154993528,-49.94,-5.81,2880,,,,,0,0
FRLM,10/1/02,-21.92105846,6.290774824,-36.26,-4.39,2976,,,,,0,0
FRLM,11/1/02,-10.76229513,2.81636058,-22.21,-1.05,2880,,,,,0,0
FRLM,12/1/02,-4.391552422,2.854156897,-12.19,2.92,2976,,,,,0,0
FRLM,1/1/03,-1.43516801,2.59457371,-9,5.78,2976,,,,,0,0
FRLM,2/1/03,-7.854066217,2.878619504,-16.13,1.17,2688,,,,,0,0
FRLM,3/1/03,-21.2409812,6.766823538,-35.71,-5.34,2976,,,,,0,0
FRLM,4/1/03,-30.96224304,8.083158704,-42.08,-2.67,2880,,,,,0,0
FRLM,5/1/03,-23.36634072,10.19197962,-40.98,-0.04,2976,,,,,0,0
FRLM,6/1/03,-31.14093055,6.938105473,-44.22,-9.91,2880,,,,,0,0
FRLM,7/1/03,-28.35507059,9.371690551,-44.04,-10.17,2976,,,,,0,0
FRLM,8/1/03,-37.56607523,8.208476601,-52.85,-12.58,2976,,,,,0,0
FRLM,9/1/03,-27.32047916,10.5784117,-47.98,-8.33,2880,,,,,0,0
FRLM,10/1/03,-16.06352149,4.869521075,-33.05,-5.65,2976,,,,,0,0
FRLM,11/1/03,-9.220645837,3.106207573,-19.13,0.72,2880,,,,,0,0
FRLM,12/1/03,-1.987325271,2.825349702,-11,5.48,2976,,,,,0,0
FRLM,1/1/04,-3.496512095,2.690838071,-10.49,6.05,2976,,,,,0,0
FRLM,2/1/04,-9.449062502,3.808725357,-21.45,-2.13,2784,,,,,0,0
FRLM,3/1/04,-25.85005041,5.818367062,-40.19,-11.67,2976,,,,,0,0
FRLM,4/1/04,-30.05468402,6.592251002,-41.81,-11.27,2880,,,,,0,0
FRLM,5/1/04,-32.59032259,11.29420052,-47.44,-4.09,2976,,,,,0,0
FRLM,6/1/04,-27.2579618,10.22626912,-45.31,-5.68,2880,,,,,0,0
FRLM,7/1/04,-41.57199592,7.941704482,-51.72,-10.55,2976,,,,,0,0
FRLM,8/1/04,-37.16738236,8.657935112,-50.23,-8.86,2976,,,,,0,0
FRLM,9/1/04,-32.91297223,6.263203092,-43.21,-12.39,2880,,,,,0,0
FRLM,10/1/04,-20.92160953,9.485127663,-45.73,-5.1,2976,,,,,0,0
FRLM,11/1/04,-6.36142361,4.390101408,-19.71,3.03,2880,,,,,0,0
FRLM,12/1/04,-1.158370294,1.684369527,-8.24,3.78,2976,,,,,0,0
FRLM,1/1/05,-1.967802424,2.484061641,-8.54,7.56,2976,,,,,0,0
FRLM,2/1/05,-8.857786457,5.013307406,-24.08,1.96,2688,,,,,0,0
FRLM,3/1/05,-21.37566868,5.259994117,-31.62,-6.34,2976,,,,,0,0
FRLM,4/1/05,-31.85482288,7.614774546,-43.54,-12.44,2880,,,,,0,0
FRLM,5/1/05,-26.24462701,9.124716967,-42.62,-6.86,2976,,,,,0,0
FRLM,6/1/05,-31.96810416,10.71447008,-49.69,-3.27,2880,,,,,0,0
FRLM,7/1/05,-33.31809811,11.04412238,-48.31,-3.03,2976,,,,,0,0
FRLM,8/1/05,-33.80204638,9.745941208,-49.13,-8.06,2976,,,,,0,0
FRLM,9/1/05,-32.19823957,8.896207252,-45.65,-4.73,2880,,,,,0,0
FRLM,10/1/05,-17.27419017,7.374121885,-33.51,-3.29,2976,,,,,0,0
FRLM,11/1/05,-8.035760424,2.886610777,-16.2,-0.19,2880,,,,,0,0
FRLM,12/1/05,-1.395010079,1.944835263,-7.94,4.96,2976,,,,,0,0
FRLM,1/1/06,-2.406656588,2.021516617,-8.12,4.13,2976,,,,,0,0
FRLM,2/1/06,-8.322168902,4.044509358,-27.44,-1.55,2688,,,,,0,0
FRLM,3/1/06,-21.46648857,6.391672037,-37.23,-6.21,2976,,,,,0,0
FRLM,4/1/06,-34.40024654,6.579702805,-45.69,-12.27,2880,,,,,0,0
FRLM,5/1/06,-35.59887096,10.39922878,-49.32,-4.59,2976,,,,,0,0
FRLM,6/1/06,-26.70353817,11.97096534,-47.65,-3.84,2880,,,,,0,0
FRLM,7/1/06,-42.01916321,8.187289849,-50.08,-13.69,2976,,,,,0,0
FRLM,8/1/06,-24.82111559,8.703760537,-40.75,-5.8,2976,,,,,0,0
FRLM,9/1/06,-26.87961457,10.58134307,-44.88,-5.2,2880,,,,,0,0
FRLM,10/1/06,-21.94634408,5.933487862,-40.54,-6.88,2976,,,,,0,0
FRLM,11/1/06,-8.887645836,5.558852026,-24.12,1.81,2880,,,,,0,0
FRLM,12/1/06,-3.846717071,2.766175796,-10.23,2.63,2976,,,,,0,0
FRLM,1/1/07,-0.164284274,1.645169133,-5.48,5.51,2976,,,,,0,0
FRLM,2/1/07,-9.636834068,5.711995942,-30.02,-0.85,2688,,,,,0,0
FRLM,3/1/07,-20.23042675,6.689987492,-33.51,-1.52,2976,,,,,0,0
FRLM,4/1/07,-29.23115626,9.185408788,-44.82,-6.81,2880,,,,,0,0
FRLM,5/1/07,-27.11561827,10.3759752,-44.1,-5.06,2976,,,,,0,0
FRLM,6/1/07,-24.75030903,9.438336207,-44.86,-3.08,2880,,,,,0,0
FRLM,7/1/07,-27.71608867,9.945529925,-45.62,-5.92,2976,,,,,0,0
FRLM,8/1/07,-27.91523521,8.148842254,-42.06,-1.79,2976,,,,,0,0
FRLM,9/1/07,-23.65384373,7.195545107,-40.75,-5.86,2880,,,,,0,0
FRLM,10/1/07,-21.02122312,5.824177934,-36.97,-8.82,2976,,,,,0,0
FRLM,11/1/07,-9.934076392,7.444244672,-33.27,0.21,2880,,,,,0,0
FRLM,12/1/07,-1.971815126,3.350300512,-10.24,6.69,2975,,,,,0,0
FRLM,1/1/08,-1.840749328,2.178521312,-7.5,3.73,2976,,,,,0,0
FRLM,2/1/08,-9.693024421,3.329003296,-17.4,-0.96,2784,,,,,0,0
FRLM,3/1/08,-18.95838709,8.127402724,-33.47,2.54,2976,,,,,0,0
FRLM,4/1/08,-24.28848957,6.699055263,-36.34,-5.33,2880,,,,,0,0
FRLM,5/1/08,-30.0496102,8.34180584,-43.28,-5.25,2976,,,,,0,0
FRLM,6/1/08,-21.07946528,7.97193041,-37.38,-3.35,2880,,,,,0,0
FRLM,7/1/08,-34.87891468,9.397484996,-47.34,-9.48,2976,,,,,0,0
FRLM,8/1/08,-41.26890118,7.063541989,-51.44,-14.96,2976,,,,,0,0
FRLM,9/1/08,-20.72990623,9.279761357,-45.42,-6.5,2880,,,,,0,0
FRLM,10/1/08,-18.40552757,4.858489677,-32.28,-7.1,2976,,,,,0,0
FRLM,11/1/08,-10.07054514,4.152707667,-20.19,1.15,2880,,,,,0,0
FRLM,12/1/08,-2.079966399,2.303235825,-8.67,4.64,2976,,,,,0,0
FRLM,1/1/09,-2.367311829,2.003764196,-7.72,2.56,2976,,,,,0,0
FRLM,2/1/09,-11.80690477,6.479193396,-27.3,-1.05,2688,,,,,0,0
FRLM,3/1/09,-22.59032259,6.266896234,-33.77,-4.9,2976,,,,,0,0
FRLM,4/1/09,-22.33780207,8.349544102,-36.49,-5.21,2880,,,,,0,0
FRLM,5/1/09,-30.74640792,11.0229558,-45.65,-8.16,2976,,,,,0,0
FRLM,6/1/09,-28.3656597,10.40524234,-46.77,-5.54,2880,,,,,0,0
FRLM,7/1/09,-30.99020499,9.53677828,-47.36,-6.18,2976,,,,,0,0
FRLM,8/1/09,-32.28412631,9.598011079,-48.26,-12.71,2976,,,,,0,0
FRLM,9/1/09,-29.0790347,10.47872692,-47.77,-2.86,2880,,,,,0,0
FRLM,10/1/09,-20.74334004,5.950593795,-34.82,-4.28,2976,,,,,0,0
FRLM,11/1/09,-6.413508166,5.078203959,-21.01,4.85,2879,,,,,0,0
FRLM,12/1/09,-2.232526883,2.140072959,-7.74,4.47,2976,,,,,0,0
FRLM,1/1/10,-2.690887098,2.079240542,-8.08,2.11,2976,,,,,0,0
FRLM,2/1/10,-9.042269341,4.873573414,-23.46,1.71,2688,,,,,0,0
FRLM,3/1/10,-19.30571236,8.246070449,-36.39,-2.34,2976,,,,,0,0
FRLM,4/1/10,-25.81621528,6.30052713,-38.07,-8.72,2880,,,,,0,0
FRLM,5/1/10,-30.4983703,9.668019253,-47.1,-10.26,2976,,,,,0,0
FRLM,6/1/10,-32.54320487,8.671117986,-44.23,-8.94,2880,,,,,0,0
FRLM,7/1/10,-34.20583334,10.3632956,-49.83,-11.99,2976,,,,,0,0
FRLM,8/1/10,-33.82826611,10.21564104,-50.37,-9.19,2976,,,,,0,0
FRLM,9/1/10,-33.54296179,8.854676353,-51.59,-12.09,2880,,,,,0,0
FRLM,10/1/10,-19.09482525,5.503287015,-42.94,-2.93,2976,,,,,0,0
FRLM,11/1/10,-6.980357641,3.023610589,-17.78,4.97,2880,,,,,0,0
FRLM,12/1/10,-1.340366263,2.993947986,-9.76,8.41,2976,,,,,0,0
FRLM,1/1/11,-3.756522182,2.982628439,-10.95,3.71,2976,,,,,0,0
FRLM,2/1/11,-8.175014887,3.008626038,-19.62,-0.97,2688,,,,,0,0
FRLM,3/1/11,-19.0775672,5.735222048,-30.81,-6,2976,,,,,0,0
FRLM,4/1/11,-24.45342362,9.589365909,-42.87,-1.67,2880,,,,,0,0
FRLM,5/1/11,-28.31415324,8.915587422,-43.46,-6.6,2976,,,,,0,0
FRLM,6/1/11,-25.33938541,11.81459745,-47.61,-5.42,2880,,,,,0,0
FRLM,7/1/11,-25.75235551,12.47416724,-48,-3.16,2976,,,,,0,0
FRLM,8/1/11,-27.1949597,11.9100662,-46.34,-3.24,2976,,,,,0,0
FRLM,9/1/11,-26.98445139,9.448969125,-44.38,-6.8,2880,,,,,0,0
FRLM,10/1/11,-20.03566868,6.329333295,-35.85,-3.6,2976,,,,,0,0
FRLM,11/1/11,-6.018654726,3.655094353,-20.71,2.57,2847,,,,,0,30
FRLM,12/1/11,-1.661767472,2.691053557,-7.85,5.54,2976,,,,,0,0
FRLM,1/1/12,-2.365984542,2.551433918,-9.8,3.99,2976,,,,,0,0
FRLM,2/1/12,-7.027065368,4.202566374,-17.65,2.28,2784,,,,,0,0
FRLM,3/1/12,-18.98514784,5.950479741,-34.26,-6.28,2976,,,,,0,0
FRLM,4/1/12,-24.53590277,8.880333953,-40.32,-2.89,2880,,,,,0,0
FRLM,5/1/12,-18.82322916,9.014626832,-38.28,-1.14,2976,,,,,0,0
FRLM,6/1/12,-28.95682291,8.573967171,-41.5,-6.58,2880,,,,,0,0
FRLM,7/1/12,-34.74389109,7.360943481,-46.16,-14.43,2976,,,,,0,0
FRLM,8/1/12,-29.74221098,10.29517876,-46.28,-8.1,2976,,,,,0,0
FRLM,9/1/12,-26.36236802,7.581650501,-41.25,-11.41,2880,,,,,0,0
FRLM,10/1/12,-18.00573588,4.870718032,-34.46,-7.87,2976,,,,,0,0
FRLM,11/1/12,-8.202459189,4.176786981,-21.03,1.81,2879,,,,,0,0
FRLM,12/1/12,-0.766673387,2.420649641,-8.23,6.75,2976,,,,,0,0
FRLM,1/1/13,-1.67606519,2.166317782,-9.38,4.11,2976,,,,,0,0
FRLM,2/1/13,-9.093526784,3.368690882,-19.28,-1.47,2688,,,,,0,0
FRLM,3/1/13,-18.79485551,7.12041263,-35.55,-3.53,2976,,,,,0,0
FRLM,4/1/13,-32.34792362,8.711267516,-45.99,-7.04,2880,,,,,0,0
FRLM,5/1/13,-25.92396506,8.657521388,-43.07,-5.9,2976,,,,,0,0
FRLM,6/1/13,-29.51163194,8.054676204,-48.22,-6.79,2880,,,,,0,0
FRLM,7/1/13,-34.50971775,7.951838568,-49.32,-10.72,2976,,,,,0,0
FRLM,8/1/13,-32.64467405,9.385264729,-45.39,-4.37,2976,,,,,0,0
FRLM,9/1/13,-23.25140972,8.874485967,-45.88,-1.74,2880,,,,,0,0
FRLM,10/1/13,-20.19229166,6.081059076,-33.62,-4.93,2976,,,,,0,0
FRLM,11/1/13,-8.631201388,5.987148326,-24.92,3.93,2880,,,,,0,0
FRLM,12/1/13,-1.120413307,2.137130234,-6.36,4.1,2976,,,,,0,0
FRLM,1/1/14,-0.393568548,2.667048847,-7.06,6.39,2976,,,,,0,2375
FRLM,2/1/14,-7.095022321,3.854738995,-18.01,1.81,2688,,,,,0,2688
FRLM,3/1/14,-18.95079635,7.330781969,-36.74,-6.72,2976,,,,,0,2976
FRLM,4/1/14,-26.74421875,8.716871506,-42.69,-3.49,2880,,,,,0,2880
FRLM,5/1/14,-25.68634407,11.67699577,-44.1,-4.29,2976,,,,,0,2976
FRLM,6/1/14,-30.51767017,7.408952773,-43.66,-9.27,2880,,,,,0,2880
FRLM,7/1/14,-39.88248656,10.31809337,-50.25,-4.62,2976,,,,,0,2976
FRLM,8/1/14,-23.50666328,9.844027696,-47.51,-5.66,2976,,,,,0,2976
FRLM,9/1/14,-20.28275694,7.237471404,-35.35,-3.68,2880,,,,,0,2880
FRLM,10/1/14,-14.13208669,5.220852377,-28.13,-0.18,2976,,,,,0,2976
FRLM,11/1/14,-8.421717659,3.232900064,-18.33,-0.86,2876,,,,,0,2876
FRLM,12/1/14,-3.320786293,2.432531691,-10.99,2.54,2976,,,,,0,2976
FRLM,1/1/15,-1.28062836,2.141603569,-6.39,6.69,2976,,,,,0,2976
FRLM,2/1/15,-4.90553944,3.514842352,-13.89,2.66,2688,,,,,0,2688
FRLM,3/1/15,-20.62479502,6.657421904,-32.06,-5.13,2976,,,,,0,2976
FRLM,4/1/15,-30.64922915,7.875797814,-45.92,-7.71,2880,,,,,0,2880
FRLM,5/1/15,-35.96298385,5.886264602,-46.88,-14.48,2976,,,,,0,2976
FRLM,6/1/15,-29.84846528,8.586256272,-43.4,-9.58,2880,,,,,0,2880
FRLM,7/1/15,-32.79871639,9.320906102,-47.56,-8.08,2976,,,,,0,2976
FRLM,8/1/15,-31.06302082,9.650037615,-45.57,-8.9,2976,,,,,0,2976
FRLM,9/1/15,-31.3917361,9.403603841,-48.14,-11.13,2880,,,,,0,2880
FRLM,10/1/15,-16.12043039,5.023375019,-29.51,-2.87,2974,,,,,0,2974
FRLM,11/1/15,-8.018409718,5.767725222,-22.14,4,2880,,,,,0,2880
FRLM,12/1/15,-1.086080574,2.446638044,-6.54,7.54,2929,,,,,0,2929
FRLM,1/1/16,-0.706434812,2.538106688,-7.87,6.61,2976,,,,,0,2976
FRLM,2/1/16,-6.888796697,4.466009706,-17.43,4.76,2784,,,,,0,2784
FRLM,3/1/16,-20.70804098,5.220964573,-32.32,-8.48,2976,,,,,0,2976
FRLM,4/1/16,-29.98500694,9.851552908,-42.48,-4.35,2880,,,,,0,2880
FRLM,5/1/16,-32.70026494,8.73930847,-44.7,-7.28,2227,,,,,0,2227
FRLM,11/1/16,-9.198632575,3.848475585,-20.23,4.36,2523,,,,,0,2523
FRLM,12/1/16,-2.917812498,3.158151881,-13.18,4.15,2976,,,,,0,2976
FRLM,1/1/17,-1.454684139,2.22319447,-8.38,5.77,2976,,,,,0,2976
FRLM,2/1/17,-7.672198655,4.31083344,-18.43,3.75,2688,,,,,0,2688
FRLM,3/1/17,-18.38997647,6.212286452,-36.16,-4.52,2976,,,,,0,2976
FRLM,4/1/17,-25.02005555,7.702285362,-38.12,-8.92,2880,,,,,0,2880
FRLM,5/1/17,-22.95026547,8.065334276,-36.83,-3.92,2976,,,,,0,2976
FRLM,6/1/17,-29.7913993,11.09783016,-48,-7.88,2880,,,,,0,2880
FRLM,7/1/17,-29.56399528,9.214697799,-44.35,-7.32,2976,,,,,0,2976
FRLM,8/1/17,-28.05238575,11.56811682,-46.36,-6.14,2976,,,,,0,2976
FRLM,9/1/17,-32.09614584,7.677744717,-45.12,-10.14,2880,,,,,0,2880
FRLM,10/1/17,-16.79860887,5.98147896,-34.15,-4.66,2976,,,,,0,2976
FRLM,11/1/17,-9.448152783,5.031803629,-20.32,2.39,2880,,,,,0,2880
FRLM,12/1/17,-3.446215487,2.161038653,-9.69,5.93,2970,,,,,0,2970
FRLM,1/1/18,-1.858985217,2.559692232,-9.01,6.49,2976,,,,,0,2976
FRLM,2/1/18,-9.237198655,3.923394175,-20.16,-1.16,2688,,,,,0,2688
FRLM,3/1/18,-17.07988913,6.643630654,-37.08,-0.16,2976,,,,,0,2976
FRLM,4/1/18,-24.16805903,8.502687715,-39.42,-3.66,2880,,,,,0,2880
FRLM,5/1/18,-30.4010887,9.070419195,-43.5,-6.31,2976,,,,,0,2976
FRLM,6/1/18,-22.78462151,7.304573861,-42.79,-7.06,2880,,,,,0,2880
FRLM,7/1/18,-30.28152217,12.47429569,-51.59,-7.62,2976,,,,,0,2976
FRLM,8/1/18,-33.68960348,12.00829562,-48.31,-3.74,2976,,,,,0,2976
FRLM,9/1/18,-28.60879859,8.430401938,-43.59,-8.13,2880,,,,,0,2880
FRLM,10/1/18,-14.5024328,7.212286181,-32.5,1.08,2976,,,,,0,2976
FRLM,11/1/18,-6.346725693,3.918797606,-17.99,3.8,2880,,,,,0,2880
FRLM,12/1/18,-0.645101008,2.627513967,-7.78,8.61,2970,,,,,0,532
FRLM,1/1/19,-2.089163307,2.124462722,-6.99,3.93,2976,,,,,0,0
FRLM,2/1/19,-6.224895829,2.955408465,-16.35,-0.19,2688,,,,,0,0
FRLM,3/1/19,-18.8553965,6.962360776,-37.85,-2.15,2976,,,,,0,0
FRLM,4/1/19,-26.22604163,11.43089329,-44.91,-4.53,2880,,,,,0,0
FRLM,5/1/19,-21.82291667,7.912491837,-36.97,-7.49,2976,,,,,0,0
FRLM,6/1/19,-27.30411457,11.1278115,-46.1,-7.2,2880,,,,,0,0
FRLM,7/1/19,-26.00232528,11.18970267,-42.12,1.58,2976,,,,,0,0
FRLM,8/1/19,-27.90651543,11.58490514,-46.6,-6.93,2976,,,,,0,0
FRLM,9/1/19,-25.06353472,7.965371764,-39.55,-9.22,2880,,,,,0,0
FRLM,10/1/19,-16.8935047,4.665588922,-30.02,-5.7,2976,,,,,0,0
FRLM,11/1/19,-5.779211809,3.852316876,-15.5,3.06,2880,,,,,0,0
FRLM,12/1/19,-1.460820995,2.265919973,-7.59,5.04,2972,,,,,0,1191
FRLM,1/1/20,-2.109032259,2.443659223,-7.92,3.69,2976,,,,,0,2976
FRLM,2/1/20,-6.381174571,5.631242527,-24.52,6.71,2784,,,,,0,2784
FRLM,3/1/20,-20.23815189,6.30659444,-35.83,-6.58,2976,,,,,0,2976
FRLM,4/1/20,-24.03207639,6.749756336,-37.56,-7.62,2880,,,,,0,2880
FRLM,5/1/20,-28.7678629,7.982337789,-41.57,-7.07,2976,,,,,0,2976
FRLM,6/1/20,-27.22196527,10.82608794,-47.41,-4,2880,,,,,0,2880
FRLM,7/1/20,-28.31553759,9.874237173,-44.25,-1.79,2976,,,,,0,2976
FRLM,8/1/20,-26.63756381,7.872293735,-48.14,-4.78,2976,,,,,0,2976
FRLM,9/1/20,-28.11359027,10.48265435,-48.14,-5.53,2880,,,,,0,2880
FRLM,10/1/20,-16.57622313,5.542457051,-30.56,-1.96,2976,,,,,0,2976
FRLM,11/1/20,-7.569253469,4.977930632,-18.64,1.26,2880,,,,,0,2880
FRLM,12/1/20,-0.49138105,2.161125555,-9.62,5.45,2976,,,,,0,2976
FRLM,1/1/21,-1.040352822,2.286898508,-6.35,6.76,2976,,,,,0,2976
FRLM,2/1/21,-8.450680803,5.838755954,-26.33,3.04,2688,,,,,0,2688
FRLM,3/1/21,-19.89517473,6.652042849,-38.38,-3.82,2976,,,,,0,2976
FRLM,4/1/21,-32.08999998,9.946841071,-50.49,-9.62,2880,,,,,0,2880
FRLM,5/1/21,-30.11945226,12.53364233,-48.26,-6.02,2976,,,,,0,2976
FRLM,6/1/21,-27.41772569,9.763662856,-44.62,-8.08,2880,,,,,0,2880
FRLM,7/1/21,-26.44119288,8.822414938,-42.76,-4.63,2976,,,,,0,2976
FRLM,8/1/21,-36.28051408,11.59160641,-51.07,-2.12,2976,,,,,0,2976
FRLM,9/1/21,-25.41745835,8.0962456,-48.98,-8.66,2880,,,,,0,2880
FRLM,10/1/21,-16.44137768,4.839665601,-29.03,-5.33,2976,,,,,0,2976
FRLM,11/1/21,-7.073676871,3.736347519,-19.32,1.72,2872,,,,,0,2872
FRLM,12/1/21,-0.622611917,2.724641256,-7.17,7.2,2971,,,,,0,2971
FRLM,1/1/22,-1.75747984,2.381079561,-7.84,5.65,2976,,,,,0,2976
FRLM,2/1/22,-5.413177085,4.901672968,-17.16,7.38,2688,,,,,0,2688
FRLM,3/1/22,-15.56784947,7.576415951,-33.54,4.74,2976,,,,,0,2976
FRLM,4/1/22,-26.85020141,10.78810376,-44.51,-7.01,2880,,,,,0,2880
FRLM,5/1/22,-21.02462365,8.077240774,-34.12,-1.54,2976,,,,,0,2976
FRLM,6/1/22,-24.58610764,10.91504283,-42.55,-2.47,2880,,,,,0,2880
FRLM,7/1/22,-22.22963709,7.377751341,-38.32,-9.04,2976,,,,,0,2976
FRLM,8/1/22,-27.67801748,12.28128927,-46.04,-2.78,2976,,,,,0,2976
FRLM,9/1/22,-28.10139583,11.35234896,-46.78,-7,2880,,,,,0,2880
FRLM,10/1/22,-15.8458602,4.276959039,-26.57,-4.2,2976,,,,,0,2976
FRLM,11/1/22,-10.16373612,5.088957918,-19.83,2.72,2880,,,,,0,2880
FRLM,12/1/22,-3.004861884,2.076454769,-8.1,2.84,905,,,,,0,905